sat.trackr.live / text

‹ back to catalog

ONEWEB-0335

NORAD 49201 · 2021-083R

PAYLOAD ACTIVE UNKNOWN

§ Identity

Operator
Country
UK
Launch date
2021-09-14
Launch site
TYMSC
Launch vehicle
Mass (kg)
RCS (m²)

Purposes: comms

External: N2YO · Heavens-Above · Gunter

§ Orbital elements

Epoch: 2026-05-25T01:16:42.940128Z

Period
109.63 min
Inclination
87.8942°
Eccentricity
0.0001948
Mean motion
13.13468586 rev/d
Perigee alt
1,208.3 km
Apogee alt
1,211.2 km
Semi-major
7,587.9 km
B*
-4.8097e-4
RAAN
324.8414°
Arg perigee
94.2653°
Mean anomaly
265.8698°
Rev number
22,788

§ Raw data

ONEWEB-03351 49201U 21083R   26145.05327477 -.00000163  00000+0 -48097-3 0  99952 49201  87.8942 324.8414 0001948  94.2653 265.8698 13.13468586227889

JSON: /api/v1/satellites/49201 · /tle

For live sub-satellite position, see the globe view (requires WebGL).

§ Visibility from observer

Set your observer location to see the next 7 days of passes ≥ 10°. The values pass through the URL so the page stays shareable.

No JS? Fill the form by hand. The geolocation button needs JavaScript.